Showing default

TIANPING 1B, 43714

Orbit data source: Space-Track

TIANPING 1B, 43714 is a payload satellite owned by Guoxing (CN) in SSO that was launched on Mon, 19 Nov 2018 UTC via a CHANG ZHENG 2D launch vehicle from the Jiuquan Satellite Launch Center, China (JSC). Payloads include a variety of satellites, spacecraft, and rockets equipped with specific instruments for various scientific and technological missions. These include communications satellites like Starlink; space stations such as the ISS; scientific satellites like the Hubble; Earth observation satellites from companies like Planet Labs, Umbra, and HawkEye 360; GPS; miniature CubeSats for education and research; and military/defense satellites.

Loading next visibility...
TIANPING 1B details
Identifier
43714, 2018-094E
Orbit
SSO
Last TLE update8 hours ago
Origin
Flag of CNGuoxing (CN / PRC)
ManufacturerDFH Shenzhen
MissionOperational Commercial Calibration
Bus & MotorPINA, Unknown motor
Mass10 kg wet, ~10 kg dry
Launch date (UTC)
2018-11-19 (6 years ago)
Launch vehicle
CHANG ZHENG 2D
Launch site
Jiuquan Satellite Launch Center, China (JSC)
Object type
Payload
Rocket body
Debris
Shape & HBRBox + 2 Pan, 0.5 m
Radar Cross Section0.048 m², Medium (>0.1 m² and < 1m²)

Expand to show TLE details & history

TLE from 8 hours ago
0 TIANPING 1B
1 43714U 18094E   24361.10315400  .00040039  00000-0  62286-3 0  9994
2 43714  97.3499  22.4604 0005171 305.9220  54.1553 15.53802488340380
Epoch: 2024-12-26T02:28Z
Definitive object data (Epoch: 2024-12-26T02:28:32.505Z)
Latitude-0.00006°
Longitude-109.76239°
Altitude406.72 km
Speed7.668 km/s
True Right ascension01h 29m 50s
True Declination0° 00' 00"
Sunlit
Object was in daylight at TLE epoch
Visualization TLE readout
Latitude-15.56714°
Longitude-107.3872°
Altitude409.295 km
Speed7.666 km/s
Apparent Right ascension23h 54m 14s
Apparent Declination-30° 55' 42"
Sunlit
Object is in daylight
Visualization observer readout
Local Sidereal Time09:29:20
Azimuth275.613° WNW
Elevation-59.377°
Doppler factor1
Orbital elements
Apogee altitude406.061 km
Perigee altitude399.048 km
Semi-major axis6,780.691 km
Eccentricity0.0005171
Inclination97.3499°
RAAN22.4604°
Arg. of periapsis305.922°
True anomaly54.20335°
Mean anomaly54.1553°
Eccentric anomaly54.17932°
Mean motion3.88716 °/min
BSTAR0.00062286
Orbital period92.61 mins
Loading maneuver chart data...
Loading historical data...
Loading historical data...
Loading historical data...
Loading historical data...
Loading historical data...
Loading historical data...
Loading historical data...

TIANPING 1B Visibility forecast

Observer location: undefined°, undefined

Span
Click to sort rows by Start time (UTC) header in descending order
Start Az.
Max El. time (UTC)
Max El. Az.
Max El.
End time (UTC)
End Az.
4 mins2024-12-26 13:52:12.307Z53.772° ENE2024-12-26 13:54:12.307Z102.371° ESE19.357°2024-12-26 13:56:12.307Z144.661° SSE
4 mins2024-12-27 01:48:12.307Z175.474° S2024-12-27 01:50:12.307Z315.98° NNW42.236°2024-12-27 01:52:12.307Z343.513° N
|